"2009-04-11 00:00:00",789452,4.073,4.188,9.12,1.262,11.82,104.135,9.86,11.01,42.25,0,110.2,13.34,10.65,326.2
"2009-04-11 00:00:30",789453,5.646,17.68,6.002,0.703,14.16,104.1386,9.87,11.29,42.56,0,110.2,13.34,10.66,339.7
"2009-04-11 00:01:00",789454,5.372,14.65,5.773,1.142,13.24,104.1377,9.87,11.23,42.58,0,110.2,13.34,10.65,336.6
"2009-04-11 00:01:30",789455,3.616,5.916,1.852,0.42,8.17,104.1329,9.85,10.91,42.41,0,110.2,13.38,10.64,327.9
"2009-04-11 00:02:00",789456,3.485,3.411,2.167,0.404,7.853,104.1186,9.82,10.91,42.45,0,110.2,13.38,10.60,325.4
"2009-04-11 00:02:30",789457,3.842,7.978,2.079,0.512,8.13,104.1079,9.79,10.89,42.47,0,110.2,13.38,10.58,330.0
"2009-04-11 00:03:00",789458,3.784,13.66,3.112,0.425,8.65,104.1118,9.8,10.89,42.5,0,110.2,13.38,10.59,335.7
"2009-04-11 00:03:30",789459,4.812,18.92,7.394,0.989,11.75,104.1162,9.81,11.08,42.72,0,110.2,13.34,10.60,340.9
"2009-04-11 00:04:00",789460,6.576,24.33,4.49,1.004,14.06,104.1166,9.81,11.21,42.85,0,110.2,13.34,10.60,346.3
"2009-04-11 00:04:30",789461,6.027,25.76,6.213,1.366,12.74,104.1067,9.79,11.16,42.81,0,110.2,13.34,10.57,347.8
"2009-04-11 00:05:00",789462,5.254,25.85,6.15,1.242,10.85,104.1046,9.78,11.01,42.71,0,110.2,13.34,10.57,347.9
"2009-04-11 00:05:30",789463,4.619,22.45,4.183,0.969,8.84,104.0972,9.76,10.81,42.58,0,110.2,13.34,10.55,344.5
"2009-04-11 00:06:00",789464,3.996,23.1,2.117,0.308,8.26,104.0953,9.76,10.79,42.59,0,110.2,13.38,10.54,345.1
"2009-04-11 00:06:30",789465,4.221,24.73,2.14,0.244,8.76,104.095,9.76,10.79,42.55,0,110.2,13.38,10.54,346.7
"2009-04-11 00:07:00",789466,4.608,26.42,5.043,0.952,10.06,104.0896,9.74,10.86,42.61,0,110.2,13.35,10.53,348.4
"2009-04-11 00:07:30",789467,6.443,38.41,4.743,0.557,14.34,104.0797,9.72,11.1,42.92,0,110.2,13.35,10.50,0.4
"2009-04-11 00:08:00",789468,5.98,32.52,7.153,1.28,12.84,104.0645,9.68,10.98,42.83,0,110.2,13.35,10.46,354.5
"2009-04-11 00:08:30",789469,5.704,30.82,6.073,1.43,11.85,104.0623,9.67,10.96,42.77,0,110.2,13.35,10.46,352.8
"2009-04-11 00:09:00",789470,4.336,28.25,3.363,0.835,8.77,104.0623,9.67,10.79,42.65,0,110.2,13.35,10.46,350.2
"2009-04-11 00:09:30",789471,4.963,33.41,6.566,1.384,10.18,104.062,9.67,10.79,42.69,0,110.2,13.35,10.46,355.4
"2009-04-11 00:10:00",789472,4.589,29.26,1.398,0.331,8.87,104.0533,9.65,10.7,42.66,0,110.2,13.38,10.44,351.3
"2009-04-11 00:10:30",789473,5.236,31.07,6.123,1.31,10.66,104.0425,9.62,10.79,42.81,0,110.2,13.35,10.41,353.1
"2009-04-11 00:11:00",789474,6.763,39.95,5.523,1.118,13.93,104.0372,9.61,10.95,42.84,0,110.2,13.35,10.39,2.0
"2009-04-11 00:11:30",789475,7.04,37.98,6.637,0.939,13.31,104.0287,9.59,10.91,42.82,0,110.2,13.34,10.37,360.0
"2009-04-11 00:12:00",789476,4.537,27.49,2.573,0.302,9.14,104.0284,9.59,10.65,42.64,0,110.2,13.38,10.37,349.5
"2009-04-11 00:12:30",789477,6.491,32.91,7.637,1.235,11.15,104.0284,9.59,10.78,42.85,0,110.2,13.34,10.37,354.9
"2009-04-11 00:13:00",789478,4.514,28.05,3.978,0.661,9.36,104.0276,9.58,10.76,43.06,0,110.2,13.34,10.37,350.0
"2009-04-11 00:13:30",789479,4.442,25.95,3.173,0.315,9.1,104.0222,9.57,10.6,42.94,0,110.2,13.38,10.36,348.0
"2009-04-11 00:14:00",789480,5.753,32.91,5.842,1.259,10.89,104.0126,9.55,10.79,43.01,0,110.2,13.34,10.33,354.9
"2009-04-11 00:14:30",789481,6.937,42.25,5.766,0.884,14.29,104.0002,9.51,10.88,42.97,0,110.2,13.34,10.30,4.2
"2009-04-11 00:15:00",789482,6.507,39.47,5.28,1.023,13.57,103.9946,9.5,10.83,42.93,0,110.2,13.34,10.29,1.5
"2009-04-11 00:15:30",789483,4.308,28.97,3.597,0.54,9.47,103.9946,9.5,10.69,42.98,0,110.2,13.38,10.29,351.0
"2009-04-11 00:16:00",789484,4.695,28.35,5.089,0.788,9.43,103.9946,9.5,10.71,43.14,0,110.2,13.35,10.29,350.4
"2009-04-11 00:16:30",789485,5.681,33.94,6.672,1.19,10.73,103.9946,9.5,10.57,43.04,0,110.1,13.34,10.29,355.9
"2009-04-11 00:17:00",789486,4.752,29.68,1.154,0.362,9.39,103.9946,9.5,10.63,43.06,0,110.2,13.39,10.29,351.7
"2009-04-11 00:17:30",789487,5.862,35.25,6.086,1.275,11.71,103.9946,9.5,10.74,42.95,0,110.1,13.35,10.29,357.2
"2009-04-11 00:18:00",789488,6.892,39.37,4.652,0.992,13.88,103.9929,9.5,10.83,43.15,0,110.1,13.35,10.28,1.4
"2009-04-11 00:18:30",789489,6.738,39.65,6.966,1.172,13.39,103.9884,9.48,10.72,43.03,0,110.1,13.35,10.27,1.7
"2009-04-11 00:19:00",789490,5.466,33.07,4.52,0.996,9.98,103.9861,9.48,10.64,42.71,0,110.1,13.35,10.26,355.1
"2009-04-11 00:19:30",789491,5.013,31.13,2.208,0.448,9.19,103.9867,9.48,10.54,42.54,0,110.1,13.39,10.27,353.1
"2009-04-11 00:20:00",789492,6.381,38.1,8.2,1.549,11.83,103.9864,9.48,10.63,42.44,0,110.1,13.35,10.26,0.1
"2009-04-11 00:20:30",789493,4.622,24.37,1.824,0.37,9.58,103.9884,9.48,10.62,42.93,0,110.1,13.39,10.27,346.4
"2009-04-11 00:21:00",789494,5.699,33.38,8.19,1.294,12.26,103.9898,9.49,10.61,43.03,0,110.1,13.35,10.27,355.4
"2009-04-11 00:21:30",789495,6.827,34.32,6.338,1.272,13.8,103.9912,9.49,10.77,43.21,0,110.1,13.35,10.28,356.3
"2009-04-11 00:22:00",789496,6.937,29.21,6.988,1.216,12.28,103.9932,9.5,10.71,43.26,0,110.1,13.35,10.28,351.2
"2009-04-11 00:22:30",789497,5.798,23.48,5.881,0.887,10.03,103.9937,9.5,10.59,43.29,0,110.1,13.35,10.28,345.5
"2009-04-11 00:23:00",789498,5.274,21.82,4.175,0.525,9.38,103.9937,9.5,10.54,43.26,0,110.1,13.39,10.28,343.8
"2009-04-11 00:23:30",789499,6.584,27.15,6.296,1.396,11.77,103.9981,9.51,10.57,43.29,0,110.1,13.35,10.29,349.1
"2009-04-11 00:24:00",789500,6.563,26.47,7.129,1.35,12.45,103.9999,9.51,10.74,43.45,0,110.1,13.36,10.30,348.5
"2009-04-11 00:24:30",789501,5.565,22.85,7.221,1.315,11.48,103.999,9.51,10.7,43.4,0,110.1,13.36,10.30,344.9
"2009-04-11 00:25:00",789502,6.286,27.81,7.158,1.466,12.87,104.0013,9.52,10.77,43.5,0,110.1,13.36,10.30,349.8
"2009-04-11 00:25:30",789503,6.066,25.36,6.7,1.258,12.32,104.0022,9.52,10.69,43.49,0,110.1,13.36,10.30,347.4
"2009-04-11 00:26:00",789504,4.189,16.5,1.475,0.272,8.89,104.004,9.52,10.51,43.38,0,110.1,13.39,10.31,338.5
"2009-04-11 00:26:30",789505,3.695,14.97,1.717,0.268,8.73,104.0057,9.53,10.53,43.46,0,110.1,13.39,10.31,337.0
"2009-04-11 00:27:00",789506,3.586,16.42,5.392,0.808,10.3,104.0072,9.53,10.68,43.67,0,110.1,13.36,10.32,338.4
"2009-04-11 00:27:30",789507,4.247,17.88,6.538,1.192,12.91,104.0116,9.54,10.75,43.79,0,110.1,13.36,10.33,339.9
"2009-04-11 00:28:00",789508,2.443,4.556,4.463,0.601,9.29,104.0102,9.54,10.62,43.65,0,110.1,13.36,10.33,326.6
"2009-04-11 00:28:30",789509,2.608,2.693,4.242,0.57,8.92,104.0041,9.52,10.61,43.66,0,110.1,13.39,10.31,324.7
"2009-04-11 00:29:00",789510,4.883,8.15,6.999,1.28,12.5,104.0037,9.52,10.78,43.87,0,110.1,13.35,10.31,330.1
"2009-04-11 00:29:30",789511,5.912,357.3,8.6,0.794,10.44,103.9972,9.51,10.58,43.69,0,110.1,13.35,10.29,319.3
"2009-04-11 00:30:00",789512,5.825,347.7,1.117,0.165,8.44,103.988,9.48,10.59,43.74,0,110.1,13.39,10.27,309.7
"2009-04-11 00:30:30",789513,6.672,344.7,5.325,1.12,8.96,103.9898,9.49,10.51,43.7,0,110.1,13.35,10.27,306.7
"2009-04-11 00:31:00",789514,7.091,348.2,7.131,1.29,11.2,103.9898,9.49,10.74,44,0,110.1,13.35,10.27,310.2
"2009-04-11 00:31:30",789515,8.12,353.5,6.151,1.056,12.51,103.9915,9.49,10.72,44.03,0,110.1,13.35,10.28,315.5
"2009-04-11 00:32:00",789516,8.42,354.8,4.47,0.917,13.18,103.9898,9.49,10.72,44.05,0,110.1,13.35,10.27,316.8
"2009-04-11 00:32:30",789517,8.05,353.5,6.318,1.108,12.16,103.9831,9.47,10.7,44.05,0,110.1,13.35,10.26,315.5
"2009-04-11 00:33:00",789518,6.128,342.9,2.897,0.491,8.74,103.9769,9.46,10.59,43.97,0,110.1,13.36,10.24,304.9
"2009-04-11 00:33:30",789519,5.898,344,3.08,0.283,8.76,103.9719,9.44,10.56,44.01,0,110.1,13.39,10.23,306.0
"2009-04-11 00:34:00",789520,6.897,348.9,6.908,1.376,10.3,103.9621,9.42,10.5,44.01,0,110.1,13.36,10.20,310.9
"2009-04-11 00:34:30",789521,7.799,352.2,6.424,1.201,12.57,103.9618,9.42,10.67,44.25,0,110.1,13.36,10.20,314.2
"2009-04-11 00:35:00",789522,7.104,353.6,7.164,1.245,11.81,103.9609,9.41,10.69,44.39,0,110.1,13.36,10.20,315.6
"2009-04-11 00:35:30",789523,7.683,358.6,5.42,1.096,12.47,103.9519,9.39,10.58,44.36,0,110.1,13.36,10.18,320.6
"2009-04-11 00:36:00",789524,5.677,348.3,4.046,0.788,8.84,103.9446,9.37,10.53,44.39,0,110.1,13.37,10.16,310.3
"2009-04-11 00:36:30",789525,6.66,354.9,7.481,1.152,10.49,103.9341,9.35,10.46,44.36,0,110.1,13.37,10.13,316.9
"2009-04-11 00:37:00",789526,5.54,349.4,3.54,0.766,9.04,103.9296,9.33,10.51,44.5,0,110.1,13.37,10.12,311.4
"2009-04-11 00:37:30",789527,6.439,351.9,6.605,1.315,9.97,103.9282,9.33,10.43,44.44,0,110.1,13.37,10.12,313.9
"2009-04-11 00:38:00",789528,6.605,354.1,7.077,1.24,10.88,103.9282,9.33,10.55,44.57,0,110.1,13.37,10.12,316.1
"2009-04-11 00:38:30",789529,7.241,354.5,6.537,1.373,11.34,103.9259,9.32,10.56,44.61,0,110.1,13.37,10.11,316.5
"2009-04-11 00:39:00",789530,5.888,353.8,5.264,1.258,9.52,103.9192,9.31,10.43,44.52,0,110.1,13.37,10.09,315.8
"2009-04-11 00:39:30",789531,6.507,355.6,7.139,1.184,11.02,103.9138,9.29,10.54,44.68,0,110.1,13.37,10.08,317.6
"2009-04-11 00:40:00",789532,6.141,357.2,6.452,1.579,10.72,103.9051,9.27,10.46,44.62,0,110.1,13.37,10.06,319.2
"2009-04-11 00:40:30",789533,5.898,355.6,6.53,1.069,10.46,103.8958,9.25,10.49,44.69,0,110.1,13.37,10.03,317.6
"2009-04-11 00:41:00",789534,6.421,352.9,6.862,1.169,10.16,103.8946,9.24,10.46,44.7,0,110.1,13.37,10.03,314.9
"2009-04-11 00:41:30",789535,6.15,350.4,5.104,0.895,9.07,103.8943,9.24,10.43,44.72,0,110.1,13.37,10.03,312.4
"2009-04-11 00:42:00",789536,7.058,354.8,7.001,1.329,11.28,103.8943,9.24,10.44,44.75,0,110.1,13.37,10.03,316.8
"2009-04-11 00:42:30",789537,7.118,354.8,7.492,1.243,10.89,103.8943,9.24,10.36,44.7,0,110.1,13.37,10.03,316.8
"2009-04-11 00:43:00",789538,7.616,347.9,7.316,1.359,11.36,103.8943,9.24,10.49,44.85,0,110.1,13.37,10.03,309.9
"2009-04-11 00:43:30",789539,7.305,347.2,5.993,1.311,11,103.8943,9.24,10.51,44.88,0,110.1,13.37,10.03,309.2
"2009-04-11 00:44:00",789540,6.95,348.2,6.722,1.293,10.86,103.8943,9.24,10.37,44.75,0,110.1,13.37,10.03,310.2
"2009-04-11 00:44:30",789541,6.127,344.2,5.572,0.988,9.48,103.8943,9.24,10.45,44.85,0,110.1,13.36,10.03,306.2
"2009-04-11 00:45:00",789542,6.125,342.2,5.297,1.108,8.83,103.8943,9.24,10.36,44.8,0,110.1,13.36,10.03,304.2
"2009-04-11 00:45:30",789543,5.674,339.7,3.319,0.673,8.52,103.8943,9.24,10.28,44.71,0,110.1,13.36,10.03,301.7
"2009-04-11 00:46:00",789544,6.467,338.8,6.056,1.186,9.6,103.8943,9.24,10.37,44.81,0,110.1,13.36,10.03,300.8
"2009-04-11 00:46:30",789545,7.697,349,5.557,1.013,12.64,103.8943,9.24,10.5,44.94,0,110.1,13.36,10.03,311.0
"2009-04-11 00:47:00",789546,6.857,344.3,7.133,1.267,11.56,103.8943,9.24,10.54,45.02,0,110.1,13.36,10.03,306.3
"2009-04-11 00:47:30",789547,6.859,343.8,6.538,1.264,11.24,103.8943,9.24,10.37,44.86,0,110.1,13.36,10.03,305.8
"2009-04-11 00:48:00",789548,5.914,340.3,6.029,1.091,9.7,103.8943,9.24,10.43,44.94,0,110.1,13.36,10.03,302.3
"2009-04-11 00:48:30",789549,5.337,336.7,2.528,0.784,8.12,103.8935,9.24,10.27,44.8,0,110.1,13.36,10.03,298.7
"2009-04-11 00:49:00",789550,5.323,336.7,0.921,0.072,8.02,103.8904,9.23,10.28,44.83,0,110.1,13.39,10.02,298.7
"2009-04-11 00:49:30",789551,7.521,346.1,6.274,1.016,11.99,103.8853,9.22,10.35,44.89,0,110.1,13.36,10.00,308.1
"2009-04-11 00:50:00",789552,7.683,342.9,5.172,0.985,13.21,103.8802,9.21,10.59,45.12,0,110.1,13.37,9.99,304.9
"2009-04-11 00:50:30",789553,7.26,341.4,5.651,1.169,12.37,103.8757,9.2,10.52,45.04,0,110.1,13.37,9.98,303.4
"2009-04-11 00:51:00",789554,6.289,336.9,5.571,1.247,10.78,103.8743,9.19,10.47,45,0,110.1,13.37,9.98,298.9
"2009-04-11 00:51:30",789555,6.546,334.4,6.718,1.157,9.54,103.8729,9.19,10.29,44.83,0,110.1,13.37,9.97,296.4
"2009-04-11 00:52:00",789556,5.555,330.5,2.179,0.157,7.983,103.8619,9.16,10.26,44.8,0,110.1,13.41,9.94,292.5
"2009-04-11 00:52:30",789557,5.602,327.3,1.185,0.178,8.38,103.8605,9.16,10.23,44.81,0,110.1,13.41,9.94,289.3
"2009-04-11 00:53:00",789558,7.505,334.4,5.725,1.209,12.22,103.8605,9.16,10.45,44.99,0,110.1,13.37,9.94,296.4
"2009-04-11 00:53:30",789559,8.2,336.7,3.74,0.721,13.55,103.8605,9.16,10.56,45.06,0,110.1,13.37,9.94,298.7
"2009-04-11 00:54:00",789560,8.11,333.8,4.125,0.708,13.28,103.8574,9.15,10.52,45.01,0,110.1,13.37,9.93,295.8
"2009-04-11 00:54:30",789561,6.995,328.3,6.309,1.309,10.47,103.852,9.14,10.35,44.82,0,110.1,13.37,9.92,290.3
"2009-04-11 00:55:00",789562,5.815,321.9,1.339,0.118,8.08,103.8461,9.12,10.19,44.68,0,110.1,13.41,9.90,283.9
"2009-04-11 00:55:30",789563,5.564,322.9,1.37,0.145,8.18,103.8354,9.09,10.19,44.71,0,110.1,13.41,9.88,284.9
"2009-04-11 00:56:00",789564,6.552,324.7,5.978,1.262,10.14,103.8266,9.07,10.25,44.81,0,110.1,13.37,9.85,286.7
"2009-04-11 00:56:30",789565,7.961,332,2.939,0.904,13.67,103.8266,9.07,10.48,45.06,0,110.1,13.37,9.85,294.0
"2009-04-11 00:57:00",789566,8.06,331.8,5.215,0.552,13.53,103.8244,9.06,10.48,45.03,0,110.1,13.37,9.85,293.8
"2009-04-11 00:57:30",789567,7.116,329.7,5.308,1.143,11.58,103.8102,9.03,10.32,44.98,0,110.1,13.37,9.81,291.7
"2009-04-11 00:58:00",789568,5.792,325.2,6.5,0.816,9.16,103.8106,9.03,10.25,45.03,0,110.1,13.37,9.81,287.2
"2009-04-11 00:58:30",789569,5.531,319.3,1.35,0.073,8.05,103.7982,9,10.12,44.93,0,110.1,13.41,9.78,281.3
"2009-04-11 00:59:00",789570,5.548,318.5,3.646,0.523,9.14,103.796,8.99,10.21,45.04,0,110.1,13.37,9.78,280.5
"2009-04-11 00:59:30",789571,7.902,326.7,4.774,0.42,13.29,103.7957,8.99,10.26,45.16,0,110.1,13.38,9.78,288.7
"2009-04-11 01:00:00",789572,7.558,331.9,4.013,0.675,13.8,103.7862,8.97,10.37,45.35,0,110.1,13.37,9.75,293.9
"2009-04-11 01:00:30",789573,7.123,332,5.414,1.034,13.25,103.769,8.92,10.38,45.48,0,110.1,13.37,9.71,294.0
"2009-04-11 01:01:00",789574,6.083,325.3,8.28,1.207,10.34,103.7665,8.92,10.11,45.3,0,110.1,13.37,9.70,287.3
"2009-04-11 01:01:30",789575,5.031,317.5,1.935,0.133,8.02,103.7659,8.92,10.09,45.36,0,110.1,13.41,9.70,279.5
"2009-04-11 01:02:00",789576,4.945,315.7,0.905,0.171,8.23,103.7663,8.92,10,45.36,0,110.1,13.41,9.70,277.7
"2009-04-11 01:02:30",789577,5.699,319,5.363,0.962,9.71,103.7594,8.9,10.17,45.6,0,110.1,13.37,9.68,281.0
"2009-04-11 01:03:00",789578,7.641,326,5.315,0.954,13.08,103.7402,8.85,10.22,45.64,0,110.1,13.37,9.63,288.0
"2009-04-11 01:03:30",789579,7.716,327.9,4.591,0.916,13.47,103.7429,8.86,10.26,45.63,0,110.1,13.37,9.64,289.9
"2009-04-11 01:04:00",789580,7.479,323.9,5.689,1.196,12.41,103.7452,8.86,10.17,45.49,0,110.1,13.37,9.65,285.9
"2009-04-11 01:04:30",789581,5.742,314.3,5.195,0.994,9.74,103.7458,8.86,10.06,45.36,0,110.1,13.37,9.65,276.3
"2009-04-11 01:05:00",789582,5.138,308.6,1.375,0.175,8.21,103.7421,8.85,9.91,45.37,0,110.1,13.41,9.64,270.6
"2009-04-11 01:05:30",789583,4.945,311,2.488,0.646,8.37,103.7254,8.81,9.91,45.37,0,110.1,13.38,9.59,273.0
"2009-04-11 01:06:00",789584,5.777,319.7,7.686,1.182,11.23,103.7187,8.79,10.08,45.72,0,110.1,13.38,9.58,281.7
"2009-04-11 01:06:30",789585,6.457,323.8,6.303,1.32,12.49,103.7219,8.8,10.13,45.95,0,110.1,13.38,9.59,285.8
"2009-04-11 01:07:00",789586,6.897,326,5.244,1,13.27,103.7228,8.81,10.09,45.88,0,110.1,13.38,9.59,288.0
"2009-04-11 01:07:30",789587,6.008,322.2,6.403,1.319,11.38,103.7234,8.81,10.08,45.92,0,110.1,13.38,9.59,284.2
"2009-04-11 01:08:00",789588,5.306,322.6,5.147,1.267,10.24,103.7062,8.76,9.9,45.78,0,110.1,13.38,9.55,284.6
"2009-04-11 01:08:30",789589,4.381,316.8,2.328,0.139,8.22,103.6947,8.73,9.82,45.78,0,110.1,13.42,9.52,278.8
"2009-04-11 01:09:00",789590,4.506,316.9,4.666,0.664,9.04,103.6924,8.73,9.93,45.86,0,110.1,13.38,9.51,278.9
"2009-04-11 01:09:30",789591,5.89,322.8,6.484,1.259,12.36,103.6924,8.73,10.02,45.95,0,110.1,13.38,9.51,284.8
"2009-04-11 01:10:00",789592,5.751,320.1,6.072,1.221,11.75,103.6924,8.73,9.94,45.88,0,110.1,13.38,9.51,282.1
"2009-04-11 01:10:30",789593,5.388,320.5,6.274,1.278,11.57,103.6924,8.73,9.97,45.92,0,110.1,13.39,9.51,282.5
"2009-04-11 01:11:00",789594,5.944,318,5.904,1.089,12.47,103.6918,8.73,9.96,45.9,0,110.1,13.38,9.51,280.0
"2009-04-11 01:11:30",789595,4.613,311.6,4.657,1.01,8.73,103.6845,8.71,9.74,45.61,0,110.1,13.39,9.49,273.6
"2009-04-11 01:12:00",789596,4.161,308.4,0.583,0.048,7.955,103.6718,8.67,9.73,45.58,0,110.1,13.42,9.46,270.4
"2009-04-11 01:12:30",789597,4.601,311.9,5.626,1.061,9.9,103.6597,8.64,9.84,45.69,0,110.1,13.39,9.43,273.9
"2009-04-11 01:13:00",789598,5.958,316.9,6.059,1.055,12.7,103.6585,8.64,9.91,45.78,0,110.1,13.39,9.42,278.9
"2009-04-11 01:13:30",789599,5.183,312.5,6.464,1.307,11.39,103.6585,8.64,9.91,45.79,0,110.1,13.39,9.42,274.5
"2009-04-11 01:14:00",789600,5.714,315.7,5.607,1.197,12.01,103.6585,8.64,9.88,45.8,0,110.1,13.39,9.42,277.7
"2009-04-11 01:14:30",789601,5.14,314.5,7.101,1.316,11.59,103.6585,8.64,9.97,45.88,0,110,13.39,9.42,276.5
"2009-04-11 01:15:00",789602,4.557,313.3,3.719,1.008,9.42,103.6585,8.64,9.73,45.62,0,110.1,13.39,9.42,275.3
"2009-04-11 01:15:30",789603,3.888,310.7,1.367,0.066,8.03,103.6585,8.64,9.69,45.67,0,110.1,13.42,9.42,272.7
"2009-04-11 01:16:00",789604,4.75,311.3,5.115,1.206,9.98,103.656,8.63,9.71,45.65,0,110.1,13.39,9.42,273.3
"2009-04-11 01:16:30",789605,5.232,313.3,6.888,1.293,11.94,103.6515,8.62,9.88,45.89,0,110.1,13.4,9.41,275.3
"2009-04-11 01:17:00",789606,4.508,312,5.873,1.225,10.97,103.6475,8.61,9.85,45.93,0,110,13.4,9.39,274.0
"2009-04-11 01:17:30",789607,4.802,317.5,6.679,1.234,11.65,103.6413,8.6,9.88,45.91,0,110,13.39,9.38,279.5
"2009-04-11 01:18:00",789608,5.395,318.7,6.256,1.123,12.31,103.6379,8.59,9.87,45.85,0,110,13.39,9.37,280.7
"2009-04-11 01:18:30",789609,3.342,307.9,1.151,0.066,8.36,103.6399,8.59,9.69,45.69,0,110,13.42,9.38,269.9
"2009-04-11 01:19:00",789610,3.229,305.8,0.91,0.061,8.22,103.6337,8.58,9.65,45.69,0,110,13.42,9.36,267.8
"2009-04-11 01:19:30",789611,3.352,308,1.203,0.1,8.29,103.6297,8.57,9.64,45.73,0,110,13.42,9.35,270.0
"2009-04-11 01:20:00",789612,4.361,316.8,8.14,1.33,11.17,103.6261,8.56,9.88,45.93,0,110,13.39,9.34,278.8
"2009-04-11 01:20:30",789613,5.352,321.9,6.568,1.239,12.41,103.6249,8.55,9.82,45.79,0,110,13.39,9.34,283.9
"2009-04-11 01:21:00",789614,4.698,318.1,5.279,1.31,12.37,103.6249,8.55,9.89,45.85,0,110.1,13.39,9.34,280.1
"2009-04-11 01:21:30",789615,4.824,315.5,7.102,1.249,12.12,103.6247,8.55,9.9,45.76,0,110,13.39,9.34,277.5
"2009-04-11 01:22:00",789616,4.478,315.5,5.831,1.284,10.49,103.6247,8.55,9.72,45.56,0,110,13.39,9.34,277.5
"2009-04-11 01:22:30",789617,3.122,307.8,0.783,0.059,8.27,103.6247,8.55,9.63,45.48,0,110,13.43,9.34,269.8
"2009-04-11 01:23:00",789618,3.084,305,1.817,0.046,8.26,103.6247,8.55,9.62,45.43,0,110,13.43,9.34,267.0
"2009-04-11 01:23:30",789619,3.012,299.3,2.007,0.053,8.75,103.6247,8.55,9.7,45.5,0,110,13.44,9.34,261.3
"2009-04-11 01:24:00",789620,4.677,306.1,6.528,1.25,12.22,103.6247,8.55,9.84,45.61,0,110,13.4,9.34,268.1
"2009-04-11 01:24:30",789621,4.891,307.6,6.121,1.169,12.88,103.625,8.55,9.79,45.55,0,110,13.4,9.34,269.6
"2009-04-11 01:25:00",789622,4.338,304.7,6.55,1.246,11.51,103.6255,8.56,9.83,45.57,0,110,13.4,9.34,266.7
"2009-04-11 01:25:30",789623,4.78,306.5,6.296,1.136,12.37,103.6264,8.56,9.89,45.61,0,110,13.4,9.34,268.5
"2009-04-11 01:26:00",789624,3.18,304.4,3.433,0.802,8.92,103.6285,8.56,9.62,45.39,0,110,13.4,9.35,266.4
"2009-04-11 01:26:30",789625,2.713,303,2.791,0.07,8.08,103.629,8.57,9.61,45.48,0,110,13.44,9.35,265.0
"2009-04-11 01:27:00",789626,3.018,298.6,1.838,0.182,8.28,103.6305,8.57,9.62,45.46,0,110,13.44,9.35,260.6
"2009-04-11 01:27:30",789627,3.764,301.1,5.105,1.202,10.14,103.6314,8.57,9.66,45.45,0,110,13.41,9.35,263.1
"2009-04-11 01:28:00",789628,4.099,303,6.946,1.243,11.07,103.6311,8.57,9.77,45.53,0,110,13.41,9.35,265.0
"2009-04-11 01:28:30",789629,4.831,312.9,6.488,1.244,12.87,103.6323,8.57,9.8,45.58,0,110,13.41,9.36,274.9
"2009-04-11 01:29:00",789630,4.699,303.8,6.232,1.268,12.52,103.6364,8.58,9.84,45.62,0,110,13.41,9.37,265.8
"2009-04-11 01:29:30",789631,5.085,308.6,6.313,1.102,12.74,103.6355,8.58,9.82,45.58,0,110,13.41,9.36,270.6
"2009-04-11 01:30:00",789632,3.573,299.9,6.151,0.934,8.89,103.6349,8.58,9.62,45.35,0,110,13.4,9.36,261.9
"2009-04-11 01:30:30",789633,2.991,294,1.122,0.072,8.11,103.6364,8.58,9.62,45.32,0,110,13.44,9.37,256.0
"2009-04-11 01:31:00",789634,2.842,298.6,1.796,0.069,8.22,103.6369,8.59,9.63,45.29,0,110,13.44,9.37,260.6
"2009-04-11 01:31:30",789635,3.101,301.3,1.5,0.101,8.89,103.6405,8.59,9.64,45.31,0,110,13.44,9.38,263.3
"2009-04-11 01:32:00",789636,4.653,308.1,6.243,1.275,12.44,103.6457,8.61,9.88,45.61,0,110,13.41,9.39,270.1
"2009-04-11 01:32:30",789637,4.458,304.3,7.18,1.323,12.82,103.6478,8.61,9.85,45.65,0,110,13.41,9.40,266.3
"2009-04-11 01:33:00",789638,4.843,306,5.539,1.168,13.18,103.6501,8.62,9.91,45.66,0,110,13.41,9.40,268.0
"2009-04-11 01:33:30",789639,4.04,302.5,6.061,1.418,10.75,103.6495,8.62,9.78,45.55,0,110,13.41,9.40,264.5
"2009-04-11 01:34:00",789640,2.64,288.7,5.046,0.09,8.47,103.6525,8.63,9.63,45.35,0,110,13.44,9.41,250.7
"2009-04-11 01:34:30",789641,2.609,287.5,2.089,0.132,8.14,103.6545,8.63,9.64,45.33,0,110,13.44,9.41,249.5
"2009-04-11 01:35:00",789642,2.578,290.3,2.328,0.057,8.44,103.6622,8.65,9.65,45.31,0,110,13.44,9.43,252.3
"2009-04-11 01:35:30",789643,2.649,292.6,2.706,0.686,9.23,103.6693,8.67,9.67,45.28,0,110,13.41,9.45,254.6
"2009-04-11 01:36:00",789644,3.268,293.6,4.722,1.3,10.71,103.6707,8.67,9.71,45.29,0,110,13.4,9.45,255.6
"2009-04-11 01:36:30",789645,4.174,297.2,5.261,1.168,13.43,103.6712,8.67,9.91,45.42,0,110,13.4,9.46,259.2
"2009-04-11 01:37:00",789646,4.019,296,6.096,1.144,12.81,103.6704,8.67,9.85,45.37,0,110,13.41,9.45,258.0
"2009-04-11 01:37:30",789647,3.223,290.3,7.301,1.301,12.24,103.6721,8.68,9.93,45.43,0,110,13.4,9.46,252.3
"2009-04-11 01:38:00",789648,2.719,288.2,5.851,1.308,10.46,103.6764,8.69,9.69,45.16,0,110,13.4,9.47,250.2
"2009-04-11 01:38:30",789649,1.639,281,0.913,0.038,8.19,103.6801,8.7,9.67,45.17,0,110,13.44,9.48,243.0
"2009-04-11 01:39:00",789650,1.846,278.3,2.185,0.132,8.19,103.6818,8.7,9.68,45.16,0,110,13.44,9.48,240.3
"2009-04-11 01:39:30",789651,1.973,279.6,2.539,0.096,8.54,103.6843,8.71,9.69,45.14,0,110,13.45,9.49,241.6
"2009-04-11 01:40:00",789652,2.082,285.5,1.59,0.056,8.87,103.6846,8.71,9.68,45.14,0,110,13.45,9.49,247.5
"2009-04-11 01:40:30",789653,2.609,289.6,6.455,1.115,10.71,103.6871,8.71,9.84,45.25,0,110,13.41,9.50,251.6
"2009-04-11 01:41:00",789654,4.289,295.1,6.024,1.117,13.27,103.6863,8.71,9.86,45.29,0,110,13.42,9.49,257.1
"2009-04-11 01:41:30",789655,4.265,290.5,6.058,1.06,13.9,103.6866,8.71,9.94,45.33,0,110,13.42,9.50,252.5
"2009-04-11 01:42:00",789656,4.117,290.9,5.488,1.172,13.36,103.6866,8.71,9.95,45.31,0,110,13.41,9.50,252.9
"2009-04-11 01:42:30",789657,2.372,278,4.775,0.68,9.43,103.6894,8.72,9.74,45.06,0,110,13.41,9.50,240.0
"2009-04-11 01:43:00",789658,1.972,275.3,2.727,0.119,8.42,103.6925,8.73,9.7,44.99,0,110,13.45,9.51,237.3
"2009-04-11 01:43:30",789659,1.96,274.2,1.712,0.067,8.39,103.6934,8.73,9.71,44.97,0,110,13.45,9.51,236.2
"2009-04-11 01:44:00",789660,1.969,271.5,2.558,0.083,8.59,103.6937,8.73,9.72,44.96,0,110,13.45,9.51,233.5
"2009-04-11 01:44:30",789661,1.847,269.6,1.209,0.082,8.77,103.6937,8.73,9.71,44.94,0,110,13.45,9.51,231.6
"2009-04-11 01:45:00",789662,1.978,269.4,1.622,0.069,9.24,103.6937,8.73,9.72,44.92,0,110,13.45,9.51,231.4
"2009-04-11 01:45:30",789663,3.021,269.6,6.891,1.389,12.26,103.6937,8.73,9.86,45.06,0,110,13.42,9.51,231.6
"2009-04-11 01:46:00",789664,3.529,275.6,5.901,1.239,13.85,103.6937,8.73,9.97,45.14,0,110,13.42,9.51,237.6
"2009-04-11 01:46:30",789665,3.113,277.6,9.89,1.211,13.15,103.6937,8.73,9.97,45.1,0,110,13.42,9.51,239.6
"2009-04-11 01:47:00",789666,2.487,251.4,9.52,1.414,11.54,103.6937,8.73,9.85,44.93,0,110,13.42,9.51,213.4
"2009-04-11 01:47:30",789667,0.858,234,4.125,0.066,8.06,103.6937,8.73,9.71,44.75,0,110,13.45,9.51,196.0
"2009-04-11 01:48:00",789668,0.722,230.2,3.543,0.094,7.818,103.6937,8.73,9.72,44.72,0,110,13.45,9.51,192.2
"2009-04-11 01:48:30",789669,1.047,211.3,6.144,0.139,8.05,103.6937,8.73,9.74,44.7,0,110,13.45,9.51,173.3
"2009-04-11 01:49:00",789670,1.077,206.1,6.703,0.106,8.5,103.6937,8.73,9.73,44.66,0,110,13.46,9.51,168.1
"2009-04-11 01:49:30",789671,1.038,207.9,3.547,0.125,8.89,103.6937,8.73,9.74,44.62,0,110,13.46,9.51,169.9
"2009-04-11 01:50:00",789672,1.191,219.7,4.467,0.131,9.29,103.6937,8.73,9.73,44.61,0,110,13.45,9.51,181.7
"2009-04-11 01:50:30",789673,1.321,227.4,2.976,0.04,9.87,103.6937,8.73,9.73,44.56,0,110,13.46,9.51,189.4